Regional Weather Roundup
Issued by NWS

Home | Current Version | Previous Version | Graphics & Text | Print | Product List | Glossary On
Versions: 1 2 3 4 5 6 7 8 9 10 11 12 13 14 15 16 17 18 19 20 21 22 23 24 25 26 27 28 29 30 31 32 33 34 35 36 37 38 39 40 41 42 43 44 45 46 47 48 49 50
000
ASUS45 KBOI 230210
RWRID

IDAHO REGIONAL WEATHER ROUNDUP
NATIONAL WEATHER SERVICE BOISE ID
800 PM MDT FRI MAY 22 2015

NOTE: "FAIR" INDICATES FEW OR NO CLOUDS BELOW 12000 FEET
WITH NO SIGNIFICANT WEATHER AND/OR OBSTRUCTIONS TO VISIBILITY

IDZ012-014-230300-
SOUTHWEST IDAHO


CITY           SKY/WX    TMP DP  RH WIND       PRES   REMARKS
BOISE          CLOUDY    69  48  47 NE6       29.80S
CALDWELL       CLOUDY    72  46  40 CALM      29.81S
MOUNTAIN HOME  PTSUNNY   69  47  46 N6        29.80S HAZE
$$

IDZ016-017-230300-
SOUTHCENTRAL IDAHO


CITY           SKY/WX    TMP DP  RH WIND       PRES   REMARKS
BURLEY         MOCLDY    57  48  72 S3        29.85S
JEROME         CLOUDY    59  51  75 E7        29.85S
TWIN FALLS     CLOUDY    61  50  67 SE5       29.83S
$$

IDZ019>023-230300-
SOUTHEAST IDAHO


CITY           SKY/WX    TMP DP  RH WIND       PRES   REMARKS
IDAHO FALLS    CLOUDY    59  44  57 SW7       29.88R
POCATELLO      PTCLDY    60  50  69 SW9       29.87R
REXBURG        CLOUDY    59  42  53 CALM      29.87S
$$

IDZ006-010-011-018-031-032-230300-
CENTRAL IDAHO MOUNTAINS


CITY           SKY/WX    TMP DP  RH WIND       PRES   REMARKS
MCCALL         LGT RAIN  49  45  86 E8        29.90R
HAILEY         MOCLDY    54  48  82 NW5       29.91R
STANLEY          N/A     55  43  63 N6        29.93S
SALMON         MOCLDY    57  46  67 N3        29.88S
CHALLIS        MOCLDY    62  42  47 N7        29.88S
$$

IDZ002-004-006-007-026-230300-
NORTHERN IDAHO


CITY           SKY/WX    TMP DP  RH WIND       PRES   REMARKS
LEWISTON       CLOUDY    68  48  48 CALM      29.80R
LOWELL           N/A     65  54  67 CALM      29.77R
COEUR D`ALENE  CLOUDY    75  46  35 S6        29.79R
MULLAN PASS    CLOUDY    57  35  43 CALM      29.96R
$$


USA.gov is the U.S. government's official web portal to all federal, state and local government web resources and services.